{"data":{"norad_id":67005,"epoch":"2026-05-25T01:14:24.476352Z","epoch_age_seconds":73602,"freshness":"FRESH","line1":"1 67005U 25293C   26145.05167218  .00002850  00000+0  24648-3 0  9998","line2":"2 67005  70.0008 262.0195 0003304 269.8100  90.2680 14.98336488 26328","mean_motion":14.98336488,"eccentricity":0.0003304,"inclination_deg":70.0008,"raan_deg":262.0195,"arg_perigee_deg":269.81,"mean_anomaly_deg":90.268,"bstar":0.00024648,"rev_number":2632,"period_min":96.106582969366,"perigee_km":569.73949030984,"apogee_km":574.33216451419,"semimajor_km":6950.172827412,"source":"CELESTRAK","updated_at":"2026-05-25T13:38:21.429603Z"}}